Location: Fours
(44.3167°N, 6.7000°E)
Time: 06:55:25
(UTC+00:00)

Cosmos 2218 Rocket - Pass Details

Date: 01 June 2022
Orbit: 956 x 1005 km, 82.9° (Epoch: 03 July)

Event Time Altitude Azimuth Distance (km) Brightness Sun altitude
Rises 00:53:03 0° 1° (N) 3,681 8.3 -21.0°
Reaches altitude 10° 00:56:02 10° 14° (NNE) 2,738 7.5 -20.9°
Maximum altitude 01:01:11 26° 69° (ENE) 1,828 5.9 -20.5°
Drops below altitude 10° 01:06:22 10° 125° (SE) 2,752 6.2 -20.2°
Sets 01:09:21 0° 138° (SE) 3,703 6.8 -19.9°
